Chillicothe, MO

10:30 PM CST on November 11, 2019 (GMT -0600)
Chillicothe

Weather History for KCDJ - September, 2019

Change the Weather History Date:

Saturday, September 28, 2019

  Actual Average (KIRK) Record (KIRK)
Temperature  
Mean Temperature 64 °F -  
Max Temperature 68 °F 73 °F 99 °F (1953)
Min Temperature 59 °F 50 °F 25 °F (1942)
Degree Days  
Heating Degree Days 2    
Growing Degree Days 14 (Base 50)    
Moisture  
Dew Point 63 °F    
Average Humidity 95    
Maximum Humidity 100    
Minimum Humidity 90    
Precipitation  
Precipitation 1.46 in - - ()
Sea Level Pressure  
Sea Level Pressure 29.95 in    
Wind  
Wind Speed 7 mph (NNE)    
Max Wind Speed 14 mph    
Max Gust Speed 25 mph    
Averages and records for this station are not official NWS values.
T = Trace of Precipitation, MM = Missing Value Source: NWS Daily Summary

Daily Weather History Graph

Daily Weather History Graph

Search for Another Location

Airport or City:

Astronomy

Sep. 28, 2019 Rise Set
Actual Time 7:07 AM CDT 7:01 PM CDT
Civil Twilight 6:40 AM CDT 7:28 PM CDT
Nautical Twilight 6:09 AM CDT 8:00 PM CDT
Astronomical Twilight 5:37 AM CDT 8:31 PM CDT
Moon 6:44 AM CDT (9/28) 7:27 PM CDT (9/28)
Length of Visible Light 12h 48m
Length of Day
11h 54m
Waning Crescent, 0% of the Moon is Illuminated
Sep 28
Waning Crescent
Sep 28
New
Oct 5
First Quarter
Oct 13
Full
Oct 21
Last Quarter

Hourly Weather History & Observations

Time (CDT) Temp. Dew Point Humidity Pressure Visibility Wind Dir Wind Speed Gust Speed Precip Events Conditions
12:52 AM 66.9 °F 64.0 °F 90% 29.80 in - NNE 6.9 mph - 0.01 in   Unknown
1:52 AM 64.9 °F 63.0 °F 93% 29.76 in - NNE 9.2 mph - N/A   Unknown
2:52 AM 64.0 °F 63.0 °F 96% 29.82 in - North 9.2 mph 19.6 mph N/A   Unknown
3:52 AM 64.0 °F 62.1 °F 93% 29.87 in - NNE 13.8 mph 25.3 mph N/A   Unknown
4:52 AM 62.1 °F 60.1 °F 93% 29.89 in - NNE 8.1 mph - 0.01 in   Unknown
5:52 AM 61.0 °F 59.0 °F 93% 29.93 in - North 6.9 mph 18.4 mph 0.04 in   Unknown
6:52 AM 59.0 °F 59.0 °F 100% 29.94 in - Calm Calm - 0.12 in   Unknown
7:52 AM 60.1 °F 59.0 °F 96% 29.96 in - North 6.9 mph 16.1 mph 0.02 in   Unknown
8:52 AM 61.0 °F 60.1 °F 97% 29.98 in - NNE 5.8 mph - N/A   Unknown
9:52 AM 61.0 °F 60.1 °F 97% 30.01 in - NE 5.8 mph - N/A   Unknown
10:52 AM 62.1 °F 61.0 °F 96% 30.02 in - NE 8.1 mph - N/A   Unknown
11:52 AM 64.0 °F 62.1 °F 93% 30.01 in - NE 8.1 mph - N/A   Unknown
12:52 PM 64.9 °F 63.0 °F 93% 30.02 in - NE 6.9 mph - N/A   Unknown
1:52 PM 66.0 °F 64.0 °F 93% 30.00 in - ENE 9.2 mph - N/A   Unknown
2:52 PM 66.9 °F 64.9 °F 93% 29.98 in - NE 5.8 mph - N/A   Unknown
3:52 PM 66.9 °F 64.9 °F 93% 29.95 in - NE 8.1 mph - N/A   Unknown
4:52 PM 66.9 °F 66.0 °F 97% 29.94 in - NE 5.8 mph - N/A   Unknown
5:52 PM 68.0 °F 66.9 °F 96% 29.95 in - Variable 4.6 mph - 0.01 in   Unknown
6:52 PM 64.9 °F 64.9 °F 100% 30.03 in - North - - 0.93 in   Unknown
7:52 PM 64.0 °F 63.0 °F 96% 30.02 in - North 9.2 mph 21.9 mph 0.17 in   Unknown
8:52 PM 64.0 °F 63.0 °F 96% 30.01 in - NE 10.4 mph - 0.12 in   Unknown
9:52 PM 64.9 °F 64.0 °F 97% 30.00 in - Variable 4.6 mph - 0.03 in   Unknown
10:52 PM 66.0 °F 64.9 °F 96% 30.00 in - Variable 3.5 mph - N/A   Unknown
11:52 PM 64.9 °F 64.9 °F 100% 30.01 in - Calm Calm - N/A   Unknown